Regional Weather Roundup
Issued by NWS

Home | Current Version | Previous Version | Graphics & Text | Print | Product List | Glossary On
Versions: 1 2 3 4 5 6 7 8 9 10 11 12 13 14 15 16 17 18 19 20 21 22 23 24 25 26 27 28 29 30 31 32 33 34 35 36 37 38 39 40 41 42 43 44 45 46 47 48 49 50
663
ASUS43 KTOP 091908
RWRKS

WEATHER ROUNDUP FOR KANSAS
NATIONAL WEATHER SERVICE GOODLAND KS
100 PM CST TUE FEB 09 2016

NOTE:  "FAIR" INDICATES FEW OR NO CLOUDS BELOW 12,000 FEET WITH NO
SIGNIFICANT WEATHER AND/OR OBSTRUCTIONS TO VISIBILITY.

KSZ001>006-013>018-027>032-041>047-092000-
NORTHWEST KANSAS

CITY           SKY/WX    TMP DP  RH WIND       PRES   REMARKS
GOODLAND       MOSUNNY   42  27  55 N7        30.29S
HAYS           CLOUDY    37  16  41 N15       30.31F WCI  28
HILL CITY      CLOUDY    37  20  50 N10       30.31F WCI  30
RUSSELL        CLOUDY    35  19  52 N16       30.30F WCI  25
$$

KSZ061>065-074>080-084>089-092000-
SOUTHWEST KANSAS

CITY           SKY/WX    TMP DP  RH WIND       PRES   REMARKS
DODGE CITY     SUNNY     45  18  34 N14G22    30.29F
ELKHART          N/A     59  24  26 N26         N/A
GARDEN CITY    SUNNY     47  23  38 N10       30.28F
GREAT BEND     CLOUDY    39  18  41 N18       30.31S WCI  30
LIBERAL        SUNNY     57  28  33 N20       30.28F
PRATT          CLOUDY    39  16  38 N16G22    30.30S WCI  31
$$

KSZ066>073-081>083-090>101-092000-
SOUTHEAST KANSAS

CITY           SKY/WX    TMP DP  RH WIND       PRES   REMARKS
CHANUTE        SUNNY     37   5  26 NW17G30   30.22F WCI  27
COFFEYVILLE    SUNNY     40   6  24 NW23G33   30.24F WCI  30
HUTCHINSON     CLOUDY    39  16  39 NW20G29   30.29F WCI  29
MEDICINE LODGE   N/A     44  19  36 N15G22    30.29F
NEWTON         SUNNY     37  10  32 N18G30    30.28R WCI  27
PARSONS        SUNNY     39   6  25 N25G31    30.23F WCI  28
WICHITA INTL   PTSUNNY   40  14  34 NW24      30.28S WCI  29
WICHITA JABRA  SUNNY     40  12  32 N26G32    30.27S WCI  29
WICHITA MCCONL SUNNY     40  12  31 N29       30.26F WCI  29
WINFIELD       SUNNY     43  16  33 NW24      30.27F
$$

KSZ007>012-019>026-033>040-048>060-102>105-092000-
NORTHEAST KANSAS

CITY           SKY/WX    TMP DP  RH WIND       PRES   REMARKS
CONCORDIA      MOSUNNY   30   9  41 N22G32    30.31F WCI  17
EMPORIA        SUNNY     35   6  29 N23G37    30.22F WCI  23
LAWRENCE       SUNNY     31   5  33 NW24G39   30.23S WCI  17
MANHATTAN      SUNNY     32   6  33 N10G30    30.29F WCI  24
MARYSVILLE     SUNNY     28  10  47 N23G31    30.27F WCI  14
OLATHE IND     SUNNY     30   7  37 N22G32    30.21S WCI  17
OLATHE EXE     SUNNY     28   6  39 NW24G35   30.19F WCI  14
SALINA         SUNNY     39  13  34 N22G32    30.31F WCI  29
TOPEKA BILLARD SUNNY     32   3  29 NW24G32   30.24F WCI  19
TOPEKA FORBES  SUNNY     33   1  25 N28G37    30.22F WCI  20
$$




USA.gov is the U.S. government's official web portal to all federal, state and local government web resources and services.